SONATE
1 44400U 19038Q 20289.76811261 .00000418 00000-0 27956-4 0 9992
2 44400 97.5533 249.5689 0026748 72.9434 287.4723 15.12071339 70759
BeeSat 9
1 44412U 19038AC 20289.42175483 .00000967 00000-0 58985-4 0 9992
2 44412 097.5530 249.3577 0024264 079.0393 281.3566 15.12489480070406
JAISAT-1
1 44419U 19038F 20289.53598542 .00000920 00000-0 55620-4 0 9998
2 44419 097.5534 249.8264 0023140 077.6757 282.7063 15.12974118070757
LightSail-2
1 44420U 19036AC 20289.45338827 .00005951 00000-0 12521-2 0 9997
2 44420 024.0081 068.9533 0020631 358.7165 001.3273 14.56827111067827
Taurus 1
1 44530U 19059C 20289.82323466 .00000960 00000-0 28350-3 0 9991
2 44530 98.5644 12.0501 0015703 157.4134 202.7747 14.45704363 57732
Duchifat 3
1 44854U 19089C 20289.71906190 .00000294 00000-0 30164-4 0 9999
2 44854 36.9649 107.5654 0009872 314.6341 45.3601 14.99153812 46350
OPS-SAT
1 44878U 19092F 20289.53175330 .00000947 00000-0 53170-4 0 9990
2 44878 097.4710 110.8078 0012795 304.3074 055.6947 15.15695331045724
TO-108
1 44881U 19093C 20289.82452834 -.00000006 00000-0 60680-5 0 9996
2 44881 97.9493 5.0032 0015451 11.7212 348.4342 14.81419634 44511
FloripaSat 1
1 44885U 19093G 20289.77036707 .00000221 00000-0 34511-4 0 9992
2 44885 97.9499 5.2142 0015245 22.2475 337.9397 14.82093589 44526
RS-44
1 44909U 19096E 20289.44653544 .00000013 00000-0 14954-4 0 9998
2 44909 082.5172 275.5762 0216505 306.1686 051.9556 12.79708574037535
SwampSat-2
1 45115U 19071E 20289.09093128 .00012537 00000-0 34260-3 0 9993
2 45115 051.6396 142.0590 0013103 130.9226 229.2894 15.37686941039514
HO-107
1 45119U 19071J 20289.02603335 .00001657 00000-0 60969-4 0 9994
2 45119 51.6429 145.3236 0012767 123.5934 236.6268 15.33989498 39478
Phoenix
1 45258U 98067RB 20289.71523785 .00005339 00000-0 94871-4 0 9996
2 45258 51.6398 109.1389 0006214 72.1330 288.0337 15.51934669 37143
AztechSat-1
1 45261U 98067RE 20289.76243971 .00010878 00000-0 17277-3 0 9999
2 45261 51.6392 107.2151 0007517 90.1804 270.0048 15.53879472 37197
QARMAN
1 45263U 98067RG 20289.73046854 .00008711 00000-0 14495-3 0 9991
2 45263 51.6396 108.4982 0007198 86.3827 273.7986 15.52877664 37219
Quetzal 1
1 45598U 98067RL 20289.74588641 .00007309 00000-0 12734-3 0 9994
2 45598 51.6404 110.1034 0003297 166.2266 193.8814 15.51867646 26464
BY70-2
1 45857U 20042B 20289.82893448 .00000815 00000-0 12477-3 0 9992
2 45857 98.0064 1.9715 0009624 280.8084 79.2035 14.76358485 15454
UPMSat 2
1 46276U 20061E 20289.71612973 .00000441 00000-0 26314-4 0 9990
2 46276 97.4603 2.0884 0002885 110.7742 249.3800 15.16074965 6458
AmicalSat
1 46287U 20061R 20289.75543362 .00000734 00000-0 49033-4 0 9999
2 46287 97.5154 2.0832 0002264 182.2874 177.8345 15.09979677 6417
/EX
1
0
The following satellites have decayed from orbit and have been removed from
this week's AMSAT-NA TLE Distribution:
MO-106 - Cat ID 44830 (decay epoch = 2020-10-09 per Space-Track).
TRSI-Sat - Cat ID 44831 (decay epoch = 2020-10-11 per Space-Track).
The following satellite has an estimated decay epoch determined by
SpaceTrack as follows:
EnduroSat One - Cat ID 43551 - estimated decay epoch = 2020-10-15 per
Space-Track).
(Still in orbit as of 2020-10-15 at 04:53 UTC.)
1
0
Correction to MO-106 decay epoch:
The decay epoch predicted by Space-Track for MO-106 - Cat ID 44830 is
2020-10-09. Decay has occurred or is eminent.
Sorry, I made a cut and paste error on the decay date.
Ray Hoad
WA5QGD
AMSAT-NA Orbital Elements Manager
1
0
SB KEPS @ AMSAT $ORB20282.N
2Line Orbital Elements 20282.AMSAT
HR AMSAT ORBITAL ELEMENTS FOR AMATEUR SATELLITES IN NASA FORMAT
FROM WA5QGD FORT WORTH,TX October 8, 2020
BID: ORB20282.N
DECODE 2-LINE ELSETS WITH THE FOLLOWING KEY:
1 AAAAAU 00 0 0 BBBBB.BBBBBBBB .CCCCCCCC 00000-0 00000-0 0 DDDZ
2 AAAAA EEE.EEEE FFF.FFFF GGGGGGG HHH.HHHH III.IIII JJ.JJJJJJJJKKKKKZ
KEY: A-CATALOGNUM B-EPOCHTIME C-DECAY D-ELSETNUM E-INCLINATION F-RAAN
G-ECCENTRICITY H-ARGPERIGEE I-MNANOM J-MNMOTION K-ORBITNUM Z-CHECKSUM
TO ALL RADIO AMATEURS BT
AO-07
1 07530U 74089B 20282.56933538 -.00000026 00000-0 12368-3 0 9991
2 07530 101.8152 251.7333 0012261 144.7245 328.7960 12.53645431100165
UO-11
1 14781U 84021B 20282.76385514 .00000062 00000-0 13613-4 0 9995
2 14781 97.5911 289.1037 0008367 178.7530 181.3707 14.83197443969623
LO-19
1 20442U 90005G 20282.42018333 .00000000 00000-0 16549-4 0 9993
2 20442 098.7033 230.1071 0011683 177.0925 183.0329 14.32962529604737
HUBBLE
1 20580U 90037B 20282.49911038 .00000502 00000-0 19548-4 0 9991
2 20580 028.4700 291.9447 0002480 224.5961 269.0124 15.09445693473056
MET-2/21
1 22782U 93055A 20282.60509463 -.00000004 00000-0 -16589-4 0 9999
2 22782 082.5480 143.8046 0021291 278.6475 136.2022 13.83829176368696
AO-27
1 22825U 93061C 20282.57645516 -.00000015 00000-0 12421-4 0 9992
2 22825 098.9268 287.8922 0009264 052.4824 307.7198 14.30094175409986
IO-26
1 22826U 93061D 20282.74616763 -.00000008 00000-0 14753-4 0 9996
2 22826 98.9208 288.0005 0009625 40.6418 319.5480 14.30430774410497
FO-29
1 24278U 96046B 20282.52452467 -.00000011 00000-0 22170-4 0 9996
2 24278 098.5890 017.5834 0351288 082.1245 281.9611 13.53099743192173
NOAA-15
1 25338U 98030A 20282.54299156 .00000014 00000-0 24376-4 0 9997
2 25338 098.7102 306.9800 0009384 296.4628 063.5589 14.25992782165093
GO-32
1 25397U 98043D 20282.45515031 -.00000004 00000-0 17668-4 0 9995
2 25397 098.7370 223.1346 0002380 089.8390 270.3061 14.23691771155633
ISS
1 25544U 98067A 20282.90621528 -.00000450 00000-0 00000 0 0 9996
2 25544 51.6441 145.7937 0001381 11.8831 164.4125 15.49290421249649
NO-44
1 26931U 01043C 20282.84672069 -.00000028 00000-0 21063-4 0 9992
2 26931 67.0515 209.7668 0006679 276.2215 83.8126 14.30589769993368
SO-50
1 27607U 02058C 20282.61207435 .00000009 00000-0 21712-4 0 9995
2 27607 064.5573 028.3926 0034720 138.0771 222.2999 14.75665654957428
CO-55
1 27844U 03031E 20282.55645353 .00000044 00000-0 39327-4 0 9998
2 27844 98.6836 288.5899 0011011 88.4281 271.8158 14.22259918896212
CO-57
1 27848U 03031J 20282.54568286 .00000030 00000-0 33577-4 0 9996
2 27848 098.6901 289.1445 0010872 099.8235 260.4171 14.21844018896019
RS-22
1 27939U 03042A 20282.68782105 .00000126 00000-0 31288-4 0 9995
2 27939 98.1074 56.1094 0012907 2.2145 357.9117 14.66892062910613
NOAA-18
1 28654U 05018A 20282.56843509 .00000062 00000-0 58107-4 0 9996
2 28654 099.0315 339.9878 0013282 272.2542 087.7109 14.12545028792889
CO-58
1 28895U 05043F 20282.33928628 .00000152 00000-0 38045-4 0 9991
2 28895 098.0260 055.6369 0015493 285.9880 073.9616 14.63806646797127
Falconsat-3
1 30776U 07006E 20282.43377809 .00003148 00000-0 82609-4 0 9996
2 30776 035.4344 276.9258 0002076 156.1961 203.8862 15.38327816754246
CO-65
1 32785U 08021C 20282.46866771 .00000219 00000-0 29177-4 0 9997
2 32785 097.5839 265.5755 0014400 115.5999 244.6708 14.88526217674687
AAUSAT2
1 32788U 08021F 20282.69166959 .00000855 00000-0 82674-4 0 9993
2 32788 97.4956 282.1824 0012786 41.8359 318.3837 14.95172897676332
DO-64
1 32789U 08021G 20282.67990077 .00001118 00000-0 76598-4 0 9999
2 32789 97.4081 321.4756 0010396 289.8189 70.1919 15.07984403678977
CO-66
1 32791U 08021J 20282.47490875 .00000337 00000-0 39256-4 0 9993
2 32791 097.5495 271.6838 0014842 086.3214 273.9702 14.91126563675221
RS-30
1 32953U 08025A 20282.71761267 .00000037 00000-0 19437-3 0 9995
2 32953 82.5059 207.4670 0018768 163.2886 196.8815 12.43098464561701
PRISM
1 33493U 09002B 20282.40864889 .00001228 00000-0 11158-3 0 9996
2 33493 098.1538 227.4395 0016364 045.8987 314.3577 14.97167431636605
